Location: Champseau
(45.8333°N, 1.7667°E)
Time: 03:56:40
(UTC+00:00)

Cosmos 2263 Rocket - Pass Details

Date: 18 April 2021
Orbit: 824 x 848 km, 71.0° (Epoch: 10 May)

Event Time Altitude Azimuth Distance (km) Brightness Sun altitude
Exits shadow 21:42:53 12° 63° (ENE) 2,276 4.3 -26.0°
Drops below altitude 10° 21:43:32 10° 58° (ENE) 2,431 4.5 -26.1°
Sets 21:46:41 0° 40° (NE) 3,371 5.5 -26.4°
